www.pogodaiklimat.ru

Погода и климат >> Архив погоды >> Шри Ланка >> Поттувил


ПОГОДА в Поттувиле

  • Прогноз погоды в Поттувиле
  • Монитор погоды в Поттувиле

АРХИВ ПОГОДЫ в Поттувиле

Время (UTC), дата Ветер
(напр.,м/с)
 
Видим.   Явления Облачность Т
(С)
Тd
(С)
f
(%)
Тe
(С)
Тes
(С)
Комфортность P
(гПа)
Po
(гПа)
Тmin
(С)
Tmax
(С)
R
(мм)
R24
(мм)
S
(см)
03 17.03 З 3 20 км гроза, ливневой дождь 10/6 500 м
[Cb cap Ac As]
+25.2 +24.5 96 +35 +36 очень
душно
1013.7 1013.3 +24.4 10
09 17.03 СВ 3 20 км 10/6 540 м
[Cu hum Ac As]
+28.6 +24.9 80 +41 +42 опасность
перегрева
1010.3 1009.9
03 18.03 СЗ 4 20 км 9/8 540 м
[Cu hum Ac trans]
+27.4 +25.4 89 +40 +41 очень
душно
1012.7 1012.3 +23.7 11
06 18.03 С 3 20 км 5/5 540 м
[Cb cap]
+31.4 +25.2 70 +45 +54 опасность
перегрева
1012.6 1012.2
09 18.03 ЮВ 3 20 км 9/8 <50 м
[Cb cap Ac trans]
+29.0 +24.4 76 +41 +42 опасность
перегрева
1010.0 1009.6
12 18.03 СВ 4 20 км 5/4 540 м
[Cu hum Ci fib]
+29.4 +25.1 78 +43 +43 опасность
перегрева
1009.5 1009.1 +32.2
00 19.03 СЗ 2 20 км 3/3 540 м
[Cu hum]
+24.8 +23.7 94 +34 +34 очень
душно
1009.5 1009.1
03 19.03 СЗ 3 20 км 4/4 540 м
[Cu hum]
+27.8 +24.9 84 +40 +44 очень
душно
1012.1 1011.7 +24.0
06 19.03 В 5 20 км 1/1 540 м
[Cu hum]
+31.8 +24.1 64 +44 +54 опасность
перегрева
1011.3 1010.9
09 19.03 СВ 9 20 км 1/1 540 м
[Cu hum]
+31.4 +23.6 63 +42 +44 опасность
перегрева
1007.8 1007.4
12 19.03 СВ 5 20 км ясно +30.0 +24.3 72 +42 +42 опасность
перегрева
1007.7 1007.3 +32.4
15 19.03 В 3 20 км 4/4 540 м
[Cu hum]
+28.3 +24.5 80 +40 +40 очень
душно
1010.1 1009.8
00 20.03 штиль 0 20 км 3/3 540 м
[Cu hum]
+26.8 +24.7 88 +38 +38 очень
душно
1009.3 1008.9
03 20.03 З 2 20 км ясно +27.8 +24.6 83 +39 +47 очень
душно
1011.9 1011.5 +23.5
06 20.03 В 5 20 км 4/4 540 м
[Cu hum]
+31.5 +23.5 63 +43 +49 опасность
перегрева
1011.8 1011.4
09 20.03 СВ 3 20 км 4/4 540 м
[Cu hum]
+31.5 +24.3 66 +44 +51 опасность
перегрева
1009.2 1008.8
12 20.03 С 3 20 км 4/4 540 м
[Cu hum]
+30.3 +24.5 71 +43 +43 опасность
перегрева
1009.0 1008.6 +32.6
15 20.03 СВ 4 20 км 4/4 540 м
[Cu hum]
+28.7 +24.1 76 +40 +40 очень
душно
1010.8 1010.4
00 21.03 ЮВ 4 20 км в посл. час ливневой дождь 8/6 500 м
[Cu med, cong Ci fib]
+24.8 +24.2 96 +34 +34 очень
душно
1010.1 1009.7 8
03 21.03 ЮВ 2 20 км {ливн. осадки} 9/6 540 м
[Cb cap Ci sp]
+27.0 +25.3 90 +39 +42 очень
душно
1012.2 1011.8 +24.3 0.2
09 21.03 В 6 20 км 1/1 540 м
[Cb cap]
+31.0 +24.1 67 +43 +48 опасность
перегрева
1009.5 1009.1
15 21.03 СВ 4 20 км 4/4 540 м
[Cu hum]
+28.6 +25.8 85 +43 +43 опасность
перегрева
1011.8 1011.4
00 22.03 З 4 20 км 4/4 540 м
[Cu hum]
+25.2 +24.6 96 +35 +35 очень
душно
1010.3 1009.9
03 22.03 СВ 3 20 км 3/3 540 м
[Cu hum]
+28.4 +25.9 86 +42 +47 опасность
перегрева
1012.7 1012.3 +25.0
06 22.03 В 5 20 км 3/3 540 м
[Cu hum]
+31.1 +25.2 71 +45 +53 опасность
перегрева
1012.7 1012.3
09 22.03 В 6 20 км 3/3 540 м
[Cb cap]
+31.8 +24.9 67 +45 +49 опасность
перегрева
1010.1 1009.7
15 22.03 В 3 20 км 3/3 540 м
[Cu hum]
+29.2 +24.7 77 +42 +42 опасность
перегрева
1011.6 1011.2
03 23.03 З 4 20 км 3/3 540 м
[Cu hum]
+28.8 +26.0 85 +43 +47 опасность
перегрева
1012.4 1012.0 +24.9
09 23.03 В 4 20 км 8/3 540 м
[Cu hum Ci fib]
+31.8 +26.2 72 +48 +53 опасность
перегрева
1009.5 1009.1
12 23.03 СВ 7 20 км 8/4 540 м
[Cb cap Ci fib]
+29.8 +25.9 80 +45 +45 опасность
перегрева
1008.7 1008.3 +33.2
15 23.03 СВ 2 20 км 6/4 540 м
[Cu hum Ci fib]
+28.8 +25.1 80 +42 +42 опасность
перегрева
1011.0 1010.6

 

Местоположение метеостанции Поттувил (Шри Ланка): широта 6.88 долгота 81.83 высота над уровнем моря 4 м.

В архиве по умолчанию представлена погода в Поттувиле за последнюю неделю. Архивные данные за месяц целиком и за предыдущие месяцы, начиная с января 2011 года, Вы можете получить, выбрав интересующий диапазон дат из раскрывающегося списка и нажав кнопку "Ввод!".


*Определитесь, кто Вы:
робот инопланетянин человек

Внимание! Время в таблицах - всемирное. Для получения местного времени необходимо прибавить поправку, которая равна 6 ч.

Смотрите также архив погоды в соседних городах и на ближайших метеорологических станциях:

Погода в Бадулла (Шри Ланка) (87 км)
Погода в Дияталаве (Шри Ланка) (94 км)
Погода в Баттикалоа (Шри Ланка) (95 км)
Погода в Хамбантоте (Шри Ланка) (115 км)
Погода в Нувара Элия (Шри Ланка) (117 км)
Погода в Канди (Шри Ланка) (142 км)
Погода в Ратнапуре (Шри Ланка) (160 км)
Погода в Курунегала (Шри Ланка) (174 км)
Погода в Тринкомали (Шри Ланка) (200 км)
Погода в Галле (Шри Ланка) (201 км)

Пояснения к столбцам:

Ветер - указаны скорость ветра в м/с - средняя за 10 мин, порывы в срок и между сроками (в фигурных скобках) и направление, откуда дует ветер: С - северный, СВ - северо-восточный, В - восточный, ЮВ - юго-восточный, Ю - южный, ЮЗ - юго-западный, З - западный, СЗ - северо-западный.
Видимость - горизонтальная дальность видимости в метрах или километрах. При видимости от 1 до 10 км при отсутствии осадков обычно наблюдается дымка, при ухудшении видимости до 1 км и менее - туман. В сухую погоду видимость может ухудшаться дымом, пылью или мглою.
Явления - указаны атмосферные явления, наблюдавшиеся в срок или в последний час перед сроком; фигурными скобками обозначены явления, наблюдавшиеся между сроками (за 1-3 часа до срока); квадратными скобками обозначены град или гололедные отложения с указанием их диаметра в мм.
Облачность - указаны через наклонную черту общая и нижняя облачность в баллах и высота нижней границы облаков в метрах; квадратными скобками обозначены формы облаков: Ci - перистые, Cs - перисто-слоистые, Cc - перисто-кучевые, Ac - высококучевые, As - высокослоистые, Sc - слоисто-кучевые, Ns - слоисто-дождевые, Cu - кучевые, Cb - кучево-дождевые. Подробнее классификацию облаков см. в Атласе облаков (PDF).
T - Температура воздуха - температура, измеренная на высоте 2 м над землей.
Td - Температура точки росы - температура, при понижении до которой содержащийся в воздухе водяной пар достигнет насыщения.
f - Относительная влажность воздуха - влажноcть воздуха, измеренная на высоте 2 м над землей.
Te - Эффективная температура - температура, которую ощущает одетый по сезону человек в тени. Характеристика душности погоды. При расчете учитывается влияние влажности воздуха и скорости ветра на теплоощущения человека.
Tes - Эффективная температура на солнце - температура, которую ощущает человек, с поправкой на солнечный нагрев. Характеристика знойности погоды. Зависит от высоты солнца над горизонтом, облачности и скорости ветра. Ночью, в пасмурную погоду, а также при ветре 12 м/с и более поправка равна нулю.
P - Атмосферное давление - приведенное к уровню моря атмосферное давление.
Po - Атмосферное давление - измеренное на уровне метеостанции атмосферное давление.
Tmin - Минимальная температура - минимум температуры воздуха на высоте 2 м над землей.
Tmax - Максимальная температура - максимум температуры воздуха на высоте 2 м над землей.
R - Количество осадков - Количество выпавших осадков за период времени, мм. При наведении курсора мыши на число - период времени, за который выпало указанное количество осадков.
R24 - Количество осадков - Количество выпавших осадков за 24 часа, мм.
S - Снежный покров - Высота снежного покрова, см. При наведении курсора мыши на число - состояние снежного покрова и степень покрытия местности в баллах.